Regional Weather Roundup
Issued by NWS Boston, MA

Home | Current Version | Previous Version | Text Only | Print | Product List | Glossary On
Versions: 1 2 3 4 5 6 7 8 9 10 11 12 13 14 15 16 17 18 19 20 21 22 23 24 25 26 27 28 29 30 31 32 33 34 35 36 37 38 39 40 41 42 43 44 45 46 47 48 49 50
000
ASUS41 KBOX 161010
RWRBOX

REGIONAL WEATHER ROUNDUP
NATIONAL WEATHER SERVICE TAUNTON MA
500 AM EST TUE JAN 16 2018

NOTE:  "FAIR" INDICATES FEW OR NO CLOUDS BELOW 12,000 FEET WITH NO
SIGNIFICANT WEATHER AND/OR OBSTRUCTIONS TO VISIBILITY.

MAZALL-161100-
EASTERN MASSACHUSETTS

CITY           SKY/WX    TMP DP  RH WIND       PRES   REMARKS
BOSTON         CLOUDY    21  13  71 N6        30.52F WCI  13
BEVERLY        CLOUDY    20  13  74 N7        30.52R WCI  11
LAWRENCE       FAIR      21  12  68 CALM      30.52F
BEDFORD        CLOUDY    20   8  60 CALM      30.50F
BLUE HILL        N/A     19  12  74 N6        30.46S WCI  11
NORWOOD        CLOUDY    24  13  62 NW3       30.52S
MARSHFIELD     CLOUDY    23  21  93 MISG      30.52R
PLYMOUTH       CLOUDY    24  21  88 NW5       30.51R WCI  18
TAUNTON        CLOUDY    23  15  71 N5        30.51R WCI  17
NEW BEDFORD    CLOUDY    23  17  78 N5        30.50R WCI  17
$$

MAZALL-161100-
CAPE COD AND THE ISLANDS

CITY           SKY/WX    TMP DP  RH WIND       PRES   REMARKS
FALMOUTH       CLOUDY    25  23  93 MISG      30.50
HYANNIS        CLOUDY    29  27  92 NW9       30.47R WCI  20
CHATHAM        CLOUDY    30  27  88 N5        30.48R WCI  25
PROVINCETOWN   CLOUDY    30  25  81 MISG      30.50
NANTUCKET      CLOUDY    31  29  92 N13       30.46R WCI  21
MARTHAS VNYRD  CLOUDY   N/A N/A N/A N13       30.49R
$$

MAZALL-161100-
CENTRAL AND WESTERN MASSACHUSETTS

CITY           SKY/WX    TMP DP  RH WIND       PRES   REMARKS
WORCESTER      CLOUDY    17   5  59 NE3       30.43S
FITCHBURG      CLOUDY    21   9  59 CALM      30.50S
ORANGE         CLOUDY   N/A N/A N/A CALM      30.46F
SPRINGFIELD    CLOUDY    19   9  64 N3        30.48
WESTFIELD      CLOUDY    20   8  60 N5        30.49S WCI  13
NORTH ADAMS    LGT SNOW  19  14  81 E8        30.43F WCI   9
PITTSFIELD     LGT SNOW  18  12  77 CALM      30.39S
$$

RIZALL-161100-
RHODE ISLAND

CITY           SKY/WX    TMP DP  RH WIND       PRES   REMARKS
PROVIDENCE     CLOUDY    23  13  65 N7        30.51F WCI  15
NEWPORT        FAIR      22  15  75 N7        30.49R WCI  13
BLOCK ISLAND   FAIR      27  23  85 NE7       30.50R WCI  19
SMITHFIELD     CLOUDY   N/A N/A N/A NE5       30.49R
WESTERLY       CLOUDY    24  16  71 N3        30.51R
$$

CTZALL-161100-
CONNECTICUT

CITY           SKY/WX    TMP DP  RH WIND       PRES   REMARKS
BRADLEY INTL   CLOUDY    20  10  65 NW6       30.51R WCI  12
HARTFORD       CLOUDY   N/A N/A N/A NW3       30.53R
BRIDGEPORT     CLOUDY    22  12  65 N6        30.52R WCI  14
DANBURY        CLOUDY    21  12  68 E3        30.48S
GROTON         CLOUDY    21  14  74 NW3       30.51R
NEW HAVEN      CLOUDY    20  10  65 N3        30.51S
CHESTER        MOCLDY    18  14  86 NW3       30.48S
MERIDEN        CLOUDY    18  12  77 SE5       30.51R WCI  11
WILLIMANTIC    CLOUDY    24  13  62 CALM      30.50R
OXFORD         CLOUDY    18  11  74 E5        30.45F WCI  11
$$

MEZ002-015-021-024-NHZ003-005-008-011-012-014-VTZ005-008-161100-
NORTHERN NEW ENGLAND

CITY           SKY/WX    TMP DP  RH WIND       PRES   REMARKS
PORTLAND ME    CLOUDY    16   9  74 VRB7      30.53S WCI   6
BANGOR ME      FLURRIES  12   7  80 N7        30.51S WCI   1
CONCORD NH     MOCLDY    14   8  77 W3        30.49S
MANCHESTER NH  MOCLDY    18   7  62 CALM      30.48S
NASHUA NH      MOCLDY    17   8  67 CALM      30.50S
PORTSMOUTH NH  CLOUDY    18  11  73 NE6       30.50F WCI  10
JAFFREY NH     CLOUDY    18   8  65 CALM      30.42S
KEENE NH       CLOUDY    17  10  74 CALM      30.48R
BURLINGTON VT  LGT SNOW   9   4  80 CALM      30.43F
MT. WASHINGTON FOG        1   1 100 W26         N/A  VSB 1/16WCI -23
$$

NYZ052-076-161100-
EASTERN NEW YORK

CITY           SKY/WX    TMP DP  RH WIND       PRES   REMARKS
ALBANY         LGT SNOW  16  10  77 CALM      30.46F
NEW YORK CITY  CLOUDY    25  19  78 E7        30.50F WCI  17
$$

ANZALL-161100-
MARINE OBSERVATIONS

STATION/POSITION TIME  TEMP    WIND        PRES    VSBY  WAVE
                       AIR SEA DIR/SP/G                  HT/PER
                 (UTC) (F)     (DEG/KT/KT) (MB)    (MI)  (FT/S)
BOSTON BUOY      0950   26 41  330/ 12/ 14 1032.9R         9/10
BUZZARDS BAY     0900   25     360/ 15/ 16 1032.7F
NANTUCKET SOUND  0950   29 37  330/ 16/ 16 1031.7R         2/ 5
MASS BAY-STELLWA 0904   26 40              1032.3R        10/11
ISLE OF SHOALS   0900   20     350/ 11/ 14 1033.3R
S OF BLOCK IS    0943      41                N/A           6/11
$$

......................KEY.........................
  SKY/WX - SKY CONDITION/PRESENT WEATHER
  TMP    - TEMPERATURE IN FAHRENHEIT
  DWPT   - DEWPOINT IN FAHRENHEIT
  RH     - RELATIVE HUMIDITY IN PERCENT
  WIND   - DIRECTION AND SPEED IN MPH
  PRES   - MEAN SEA LEVEL PRESSURE IN INCHES OF HG
  WCI    - WIND CHILL INDEX
  VSB    - VISIBILITY IN MILES
  HX     - HEAT INDEX
  TC     - TEMPERATURE IN CELSIUS
  VRB    - VARIABLE WIND DIRECTION
  N/A    - NOT AVAILABLE



USA.gov is the U.S. government's official web portal to all federal, state and local government web resources and services.